Home > Weather > Hohhot > Past weeks

Flag for China Past Weather in Hohhot, Inner Mongolia, China — Yesterday and Last 2 Weeks

Now
64 °F

Scattered clouds.


Feels Like: 64 °F
Forecast: 64 / 81 °F
Wind: 1 mph from Northeast

Location: Hohhot Airport

Current Time: Jul 25, 2016 at 6:28:48 AM

Latest Report: Jul 25, 2016 at 6:00 AM


Visibility: N/A

Pressure: 29.83 "Hg (26.36 "Hg at 1053m altitude)

Humidity: 94%

Dew Point: 63 °F

Location of HohhotLocation

Past Weather in Hohhot — Graph

°F

Hohhot Temperature Yesterday

Maximum temperature yesterday: 79 °F (at 1:00 PM)
Minimum temperature yesterday: 64 °F (at 9:00 PM)
Average temperature yesterday: 72 °F

High & Low Weather Summary for the Past Weeks

 TemperatureHumidityPressure
High90 °F (Jul 10, 6:00 PM)100% (Jul 11, 10:00 AM)29.89 "Hg (Jul 11, 10:00 AM)
Low52 °F (Jul 17, 5:00 AM)29% (Jul 12, 6:00 PM)29.59 "Hg (Jul 15, 5:00 PM)
Average71 °F73%29.76 "Hg
* Reported Jul 10 5:00 AM — Jul 25 5:00 AM, Hohhot, Weather by CustomWeather, © 2016

Note: Actual official high and low records may vary slightly from our data, if they occured in-between our weather recording intervals... More about our weather records

Advertising

Hohhot Weather History for the Previous 24 Hours

Scroll right to see more
 ConditionsComfort  
Time TempWeatherWind HumidityBarometerVisibility
5:00 AM
Mon, Jul 25
64 °FPassing clouds.1 mph94%29.80 "HgN/A
4:00 AM64 °FSprinkles. Passing clouds.3 mph88%29.80 "HgN/A
3:00 AM64 °FSprinkles. Passing clouds.1 mph94%29.80 "HgN/A
2:00 AM64 °FSprinkles. Passing clouds.1 mph94%29.80 "HgN/A
1:00 AM64 °FSprinkles. Passing clouds.3 mph94%29.80 "Hg5 mi
12:00 AM66 °FSprinkles. Passing clouds.1 mph94%29.80 "Hg5 mi
11:00 PM
Sun, Jul 24
66 °FSprinkles. Passing clouds.1 mph88%29.80 "Hg4 mi
10:00 PM64 °FSprinkles. Passing clouds.3 mph94%29.80 "HgN/A
9:00 PM64 °FThunderstorms. Passing clouds.10 mph94%29.86 "Hg2 mi
8:00 PM66 °FThunderstorms. Fog.8 mph94%29.86 "Hg3 mi
7:00 PM73 °FSprinkles. Scattered clouds.8 mph65%29.77 "HgN/A
6:00 PM73 °FSprinkles. Scattered clouds.6 mph69%29.77 "HgN/A
5:00 PM73 °FSprinkles. Scattered clouds.13 mph69%29.77 "HgN/A
4:00 PM72 °FSprinkles. Scattered clouds.15 mph78%29.80 "HgN/A
3:00 PM77 °FScattered clouds.10 mph61%29.83 "HgN/A
2:00 PM77 °FScattered clouds.13 mph61%29.83 "HgN/A
1:00 PM79 °FScattered clouds.8 mph51%29.83 "HgN/A
12:00 PM77 °FScattered clouds.6 mph54%29.86 "HgN/A
11:00 AM77 °FPassing clouds.8 mph54%29.83 "HgN/A
10:00 AM77 °FPassing clouds.6 mph51%29.86 "HgN/A
9:00 AM77 °FPassing clouds.6 mph51%29.86 "HgN/A
8:00 AM72 °FSunny.1 mph61%29.86 "Hg10 mi
7:00 AM70 °FPassing clouds.3 mph69%29.86 "HgN/A
6:00 AM70 °FSunny.6 mph57%29.86 "Hg10 mi
Weather by CustomWeather, © 2016

See weather overviewHow to use our weather pages